• In Hungary
  • List of Countries
  • For 7 days
  • Water Temperature
  • Satellite Maps
  • Weather Map
  • News
  • Weather Widgets
  • user-avatar
    Login

    Hourly Weather Potik

    Today, 23 January, Tuesday

    Time Temperature Precipitation Wind Pressure Humidity
    00:00 -6°C° 0 mm 1 mps 695 mmHg 83%
    01:00 -6°C° 0 mm 1 mps 695 mmHg 90%
    02:00 -7°C° 0 mm 1 mps 695 mmHg 100%
    03:00 -7°C° 0 mm 1 mps 696 mmHg 100%
    04:00 -7°C° 0.1 mm 1 mps 696 mmHg 100%
    05:00 -7°C° 0 mm 1 mps 696 mmHg 100%
    06:00 -7°C° 0 mm 1 mps 696 mmHg 100%
    07:00 -7°C° 0 mm 1 mps 696 mmHg 99%
    08:00 -7°C° 0 mm 1 mps 697 mmHg 98%
    09:00 -7°C° 0 mm 1 mps 697 mmHg 99%
    10:00 -7°C° 0 mm 1 mps 698 mmHg 97%
    11:00 -6°C° 0 mm 1 mps 699 mmHg 98%
    12:00 -4°C° 0 mm 1 mps 700 mmHg 100%
    13:00 -3°C° 0 mm 1 mps 700 mmHg 100%
    14:00 -3°C° 0 mm 1 mps 701 mmHg 100%
    15:00 -3°C° 0 mm 0 mps 701 mmHg 100%
    16:00 -4°C° 0 mm 0 mps 701 mmHg 100%
    17:00 -4°C° 0 mm 0 mps 702 mmHg 100%
    18:00 -5°C° 0 mm 0 mps 702 mmHg 97%
    19:00 -6°C° 0 mm 0 mps 702 mmHg 96%
    20:00 -6°C° 0 mm 0 mps 703 mmHg 98%
    21:00 -7°C° 0 mm 1 mps 703 mmHg 98%
    22:00 -7°C° 0 mm 1 mps 703 mmHg 97%
    23:00 -7°C° 0 mm 1 mps 703 mmHg 97%

    Tomorrow, 24 January, Wednesday

    Time Temperature Precipitation Wind Pressure Humidity
    00:00 -7°C° 0 mm 1 mps 704 mmHg 97%
    01:00 -9°C° 0 mm 2 mps 704 mmHg 99%
    02:00 -9°C° 0 mm 2 mps 704 mmHg 100%
    03:00 -9°C° 0 mm 2 mps 704 mmHg 100%
    04:00 -9°C° 0 mm 2 mps 704 mmHg 100%
    05:00 -9°C° 0 mm 2 mps 704 mmHg 100%
    06:00 -9°C° 0 mm 2 mps 704 mmHg 100%
    07:00 -12°C° 0 mm 3 mps 705 mmHg 100%
    08:00 -12°C° 0 mm 3 mps 705 mmHg 100%
    09:00 -12°C° 0 mm 3 mps 705 mmHg 100%
    10:00 -12°C° 0 mm 3 mps 705 mmHg 100%
    11:00 -9°C° 0 mm 3 mps 706 mmHg 100%
    12:00 -9°C° 0 mm 4 mps 706 mmHg 100%
    13:00 -9°C° 0 mm 4 mps 706 mmHg 100%
    14:00 -9°C° 0 mm 4 mps 706 mmHg 100%
    15:00 -10°C° 0 mm 5 mps 706 mmHg 100%
    16:00 -9°C° 0.1 mm 4 mps 706 mmHg 100%
    17:00 -9°C° 0.1 mm 4 mps 706 mmHg 100%
    18:00 -10°C° 0.1 mm 4 mps 705 mmHg 100%
    19:00 -10°C° 0.1 mm 4 mps 705 mmHg 100%
    20:00 -10°C° 0.2 mm 4 mps 705 mmHg 100%
    21:00 -10°C° 0.2 mm 4 mps 705 mmHg 100%
    22:00 -10°C° 0.2 mm 4 mps 705 mmHg 100%
    23:00 -10°C° 0.2 mm 4 mps 705 mmHg 100%

    Day after tomorrow, 25 January, Thursday

    Time Temperature Precipitation Wind Pressure Humidity
    00:00 -10°C° 0.2 mm 4 mps 705 mmHg 100%
    01:00 -10°C° 0.2 mm 4 mps 705 mmHg 100%
    02:00 -10°C° 0.1 mm 4 mps 705 mmHg 100%
    03:00 -10°C° 0.1 mm 4 mps 705 mmHg 100%
    04:00 -10°C° 0 mm 3 mps 704 mmHg 100%
    05:00 -10°C° 0 mm 3 mps 704 mmHg 100%
    06:00 -11°C° 0 mm 4 mps 703 mmHg 100%
    07:00 -11°C° 0 mm 4 mps 703 mmHg 99%
    08:00 -11°C° 0 mm 4 mps 703 mmHg 97%
    09:00 -11°C° 0 mm 4 mps 703 mmHg 94%
    10:00 -10°C° 0 mm 4 mps 703 mmHg 91%
    11:00 -9°C° 0 mm 4 mps 703 mmHg 91%
    12:00 -8°C° 0 mm 4 mps 703 mmHg 89%
    13:00 -7°C° 0 mm 4 mps 703 mmHg 88%
    14:00 -5°C° 0 mm 4 mps 703 mmHg 86%
    15:00 -5°C° 0 mm 4 mps 703 mmHg 86%
    16:00 -5°C° 0 mm 3 mps 702 mmHg 88%
    17:00 -5°C° 0 mm 3 mps 702 mmHg 87%
    18:00 -6°C° 0 mm 3 mps 701 mmHg 78%
    19:00 -6°C° 0 mm 3 mps 701 mmHg 73%
    20:00 -6°C° 0 mm 3 mps 701 mmHg 70%
    21:00 -6°C° 0 mm 3 mps 701 mmHg 67%
    22:00 -6°C° 0 mm 3 mps 701 mmHg 65%
    23:00 -6°C° 0 mm 3 mps 701 mmHg 65%

    26 January, Friday

    Time Temperature Precipitation Wind Pressure Humidity
    00:00 -6°C° 0 mm 3 mps 701 mmHg 66%
    01:00 -6°C° 0 mm 3 mps 701 mmHg 67%
    02:00 -7°C° 0 mm 4 mps 700 mmHg 67%
    03:00 -6°C° 0 mm 3 mps 700 mmHg 68%
    04:00 -6°C° 0 mm 3 mps 700 mmHg 69%
    05:00 -6°C° 0 mm 3 mps 700 mmHg 70%
    06:00 -5°C° 0 mm 3 mps 700 mmHg 70%
    07:00 -5°C° 0 mm 3 mps 700 mmHg 69%
    08:00 -5°C° 0 mm 3 mps 700 mmHg 70%
    09:00 -5°C° 0 mm 4 mps 700 mmHg 71%
    10:00 -4°C° 0 mm 4 mps 700 mmHg 74%
    11:00 -3°C° 0 mm 4 mps 700 mmHg 78%
    12:00 -2°C° 0 mm 4 mps 701 mmHg 80%
    13:00 -2°C° 0 mm 4 mps 700 mmHg 83%
    14:00 -2°C° 0 mm 4 mps 700 mmHg 86%

    27 January, Saturday

    Time Temperature Precipitation Wind Pressure Humidity

    28 January, Sunday

    Time Temperature Precipitation Wind Pressure Humidity
    Show more